Year,Month,Day,Hour,Minute,Value (Times are PST for temperature in C)
2019,10,19,00,00,9.50
2019,10,19,00,01,9.50
2019,10,19,00,02,9.50
2019,10,19,00,03,9.50
2019,10,19,00,04,9.50
2019,10,19,00,05,9.50
2019,10,19,00,06,9.50
2019,10,19,00,07,9.50
2019,10,19,00,08,9.60
2019,10,19,00,09,9.60
2019,10,19,00,10,9.60
2019,10,19,00,11,9.60
2019,10,19,00,12,9.60
2019,10,19,00,13,9.60
2019,10,19,00,14,9.60
2019,10,19,00,15,9.60
2019,10,19,00,16,9.60
2019,10,19,00,17,9.60
2019,10,19,00,18,9.60
2019,10,19,00,19,9.60
2019,10,19,00,20,9.60
2019,10,19,00,21,9.60
2019,10,19,00,22,9.50
2019,10,19,00,23,9.60
2019,10,19,00,24,9.50
2019,10,19,00,25,9.50
2019,10,19,00,26,9.50
2019,10,19,00,27,9.50
2019,10,19,00,28,9.50
2019,10,19,00,29,9.50
2019,10,19,00,30,9.50
2019,10,19,00,31,9.50
2019,10,19,00,32,9.50
2019,10,19,00,33,9.50
2019,10,19,00,34,9.50
2019,10,19,00,35,9.50
2019,10,19,00,36,9.50
2019,10,19,00,37,9.50
2019,10,19,00,38,9.60
2019,10,19,00,39,9.60
2019,10,19,00,40,9.60
2019,10,19,00,41,9.60
2019,10,19,00,42,9.60
2019,10,19,00,43,9.60
2019,10,19,00,44,9.60
2019,10,19,00,45,9.60
2019,10,19,00,46,9.60
2019,10,19,00,47,9.60
2019,10,19,00,48,9.60
2019,10,19,00,49,9.60
2019,10,19,00,50,9.60
2019,10,19,00,51,9.60
2019,10,19,00,52,9.60
2019,10,19,00,53,9.60
2019,10,19,00,54,9.60
2019,10,19,00,55,9.60
2019,10,19,00,56,9.60
2019,10,19,00,57,9.60
2019,10,19,00,58,9.60
2019,10,19,00,59,9.60
2019,10,19,01,00,9.60
2019,10,19,01,01,9.60
2019,10,19,01,02,9.60
2019,10,19,01,03,9.60
2019,10,19,01,04,9.60
2019,10,19,01,05,9.60
2019,10,19,01,06,9.60
2019,10,19,01,07,9.60
2019,10,19,01,08,9.50
2019,10,19,01,09,9.50
2019,10,19,01,10,9.50
2019,10,19,01,11,9.50
2019,10,19,01,12,9.50
2019,10,19,01,13,9.50
2019,10,19,01,14,9.40
2019,10,19,01,15,9.30
2019,10,19,01,16,9.30
2019,10,19,01,17,9.20
2019,10,19,01,18,9.20
2019,10,19,01,19,9.20
2019,10,19,01,20,9.10
2019,10,19,01,21,9.10
2019,10,19,01,22,9.20
2019,10,19,01,23,9.10
2019,10,19,01,24,9.10
2019,10,19,01,25,9.10
2019,10,19,01,26,9.10
2019,10,19,01,27,9.10
2019,10,19,01,28,9.10
2019,10,19,01,29,9.10
2019,10,19,01,30,9.10
2019,10,19,01,31,9.10
2019,10,19,01,32,9.10
2019,10,19,01,33,9.10
2019,10,19,01,34,9.10
2019,10,19,01,35,9.10
2019,10,19,01,36,9.10
2019,10,19,01,37,9.10
2019,10,19,01,38,9.10
2019,10,19,01,39,9.10
2019,10,19,01,40,9.10
2019,10,19,01,41,9.10
2019,10,19,01,42,9.10
2019,10,19,01,43,9.10
2019,10,19,01,44,9.10
2019,10,19,01,45,9.10
2019,10,19,01,46,9.00
2019,10,19,01,47,9.00
2019,10,19,01,48,9.00
2019,10,19,01,49,9.10
2019,10,19,01,50,9.00
2019,10,19,01,51,9.00
2019,10,19,01,52,9.00
2019,10,19,01,53,9.00
2019,10,19,01,54,9.10
2019,10,19,01,55,9.10
2019,10,19,01,56,9.10
2019,10,19,01,57,9.10
2019,10,19,01,58,9.10
2019,10,19,01,59,9.10
2019,10,19,02,00,9.10
2019,10,19,02,01,9.10
2019,10,19,02,02,9.10
2019,10,19,02,03,9.10
2019,10,19,02,04,9.10
2019,10,19,02,05,9.10
2019,10,19,02,06,9.10
2019,10,19,02,07,9.10
2019,10,19,02,08,9.10
2019,10,19,02,09,9.10
2019,10,19,02,10,9.10
2019,10,19,02,11,9.10
2019,10,19,02,12,9.00
2019,10,19,02,13,9.00
2019,10,19,02,14,9.00
2019,10,19,02,15,9.00
2019,10,19,02,16,9.00
2019,10,19,02,17,8.90
2019,10,19,02,18,8.90
2019,10,19,02,19,8.90
2019,10,19,02,20,8.90
2019,10,19,02,21,8.90
2019,10,19,02,22,8.90
2019,10,19,02,23,8.90
2019,10,19,02,24,8.90
2019,10,19,02,25,8.90
2019,10,19,02,26,9.00
2019,10,19,02,27,8.90
2019,10,19,02,28,8.90
2019,10,19,02,29,8.90
2019,10,19,02,30,9.00
2019,10,19,02,31,8.90
2019,10,19,02,32,8.90
2019,10,19,02,33,9.00
2019,10,19,02,34,8.90
2019,10,19,02,35,8.90
2019,10,19,02,36,9.00
2019,10,19,02,37,9.00
2019,10,19,02,38,9.00
2019,10,19,02,39,9.00
2019,10,19,02,40,9.00
2019,10,19,02,41,9.00
2019,10,19,02,42,9.00
2019,10,19,02,43,9.00
2019,10,19,02,44,9.00
2019,10,19,02,45,9.00
2019,10,19,02,46,9.00
2019,10,19,02,47,9.00
2019,10,19,02,48,9.00
2019,10,19,02,49,9.00
2019,10,19,02,50,9.00
2019,10,19,02,51,9.00
2019,10,19,02,52,9.00
2019,10,19,02,53,9.00
2019,10,19,02,54,9.00
2019,10,19,02,55,9.00
2019,10,19,02,56,9.00
2019,10,19,02,57,9.00
2019,10,19,02,58,9.00
2019,10,19,02,59,9.00
2019,10,19,03,00,9.00
2019,10,19,03,01,9.00
2019,10,19,03,02,9.00
2019,10,19,03,03,9.00
2019,10,19,03,04,9.00
2019,10,19,03,05,9.00
2019,10,19,03,06,8.90
2019,10,19,03,07,8.90
2019,10,19,03,08,8.90
2019,10,19,03,09,8.90
2019,10,19,03,10,8.90
2019,10,19,03,11,8.90
2019,10,19,03,12,8.90
2019,10,19,03,13,8.90
2019,10,19,03,14,8.90
2019,10,19,03,15,8.90
2019,10,19,03,16,8.90
2019,10,19,03,17,8.90
2019,10,19,03,18,8.90
2019,10,19,03,19,8.90
2019,10,19,03,20,8.90
2019,10,19,03,21,8.90
2019,10,19,03,22,8.90
2019,10,19,03,23,8.90
2019,10,19,03,24,8.90
2019,10,19,03,25,8.90
2019,10,19,03,26,8.90
2019,10,19,03,27,8.90
2019,10,19,03,28,8.90
2019,10,19,03,29,8.90
2019,10,19,03,30,8.90
2019,10,19,03,31,8.90
2019,10,19,03,32,8.90
2019,10,19,03,33,8.90
2019,10,19,03,34,8.90
2019,10,19,03,35,8.90
2019,10,19,03,36,8.90
2019,10,19,03,37,8.90
2019,10,19,03,38,8.90
2019,10,19,03,39,8.90
2019,10,19,03,40,8.80
2019,10,19,03,41,8.80
2019,10,19,03,42,8.80
2019,10,19,03,43,8.80
2019,10,19,03,44,8.80
2019,10,19,03,45,8.80
2019,10,19,03,46,8.80
2019,10,19,03,47,8.90
2019,10,19,03,48,8.90
2019,10,19,03,49,8.90
2019,10,19,03,50,8.90
2019,10,19,03,51,8.90
2019,10,19,03,52,8.90
2019,10,19,03,53,8.90
2019,10,19,03,54,8.90
2019,10,19,03,55,8.90
2019,10,19,03,56,8.90
2019,10,19,03,57,8.80
2019,10,19,03,58,8.90
2019,10,19,03,59,8.90
2019,10,19,04,00,8.90
2019,10,19,04,01,8.80
2019,10,19,04,02,8.90
2019,10,19,04,03,8.90
2019,10,19,04,04,8.90
2019,10,19,04,05,8.80
2019,10,19,04,06,8.90
2019,10,19,04,07,8.90
2019,10,19,04,08,8.90
2019,10,19,04,09,8.90
2019,10,19,04,10,8.90
2019,10,19,04,11,8.80
2019,10,19,04,12,8.80
2019,10,19,04,13,8.80
2019,10,19,04,14,8.80
2019,10,19,04,15,8.80
2019,10,19,04,16,8.80
2019,10,19,04,17,8.80
2019,10,19,04,18,8.80
2019,10,19,04,19,8.80
2019,10,19,04,20,8.80
2019,10,19,04,21,8.80
2019,10,19,04,22,8.80
2019,10,19,04,23,8.80
2019,10,19,04,24,8.80
2019,10,19,04,25,8.80
2019,10,19,04,26,8.80
2019,10,19,04,27,8.80
2019,10,19,04,28,8.80
2019,10,19,04,29,8.80
2019,10,19,04,30,8.80
2019,10,19,04,31,8.80
2019,10,19,04,32,8.80
2019,10,19,04,33,8.80
2019,10,19,04,34,8.90
2019,10,19,04,35,8.90
2019,10,19,04,36,8.90
2019,10,19,04,37,8.90
2019,10,19,04,38,8.90
2019,10,19,04,39,8.90
2019,10,19,04,40,9.00
2019,10,19,04,41,9.00
2019,10,19,04,42,9.10
2019,10,19,04,43,9.10
2019,10,19,04,44,9.10
2019,10,19,04,45,9.10
2019,10,19,04,46,9.10
2019,10,19,04,47,9.10
2019,10,19,04,48,9.10
2019,10,19,04,49,9.10
2019,10,19,04,50,9.10
2019,10,19,04,51,9.20
2019,10,19,04,52,9.20
2019,10,19,04,53,9.20
2019,10,19,04,54,9.20
2019,10,19,04,55,9.20
2019,10,19,04,56,9.20
2019,10,19,04,57,9.20
2019,10,19,04,58,9.20
2019,10,19,04,59,9.20
2019,10,19,05,00,9.20
2019,10,19,05,01,9.20
2019,10,19,05,02,9.20
2019,10,19,05,03,9.20
2019,10,19,05,04,9.20
2019,10,19,05,05,9.20
2019,10,19,05,06,9.20
2019,10,19,05,07,9.20
2019,10,19,05,08,9.20
2019,10,19,05,09,9.20
2019,10,19,05,10,9.30
2019,10,19,05,11,9.30
2019,10,19,05,12,9.30
2019,10,19,05,13,9.30
2019,10,19,05,14,9.30
2019,10,19,05,15,9.30
2019,10,19,05,16,9.30
2019,10,19,05,17,9.20
2019,10,19,05,18,9.20
2019,10,19,05,19,9.30
2019,10,19,05,20,9.20
2019,10,19,05,21,9.30
2019,10,19,05,22,9.30
2019,10,19,05,23,9.30
2019,10,19,05,24,9.30
2019,10,19,05,25,9.30
2019,10,19,05,26,9.30
2019,10,19,05,27,9.30
2019,10,19,05,28,9.30
2019,10,19,05,29,9.30
2019,10,19,05,30,9.30
2019,10,19,05,31,9.20
2019,10,19,05,32,9.20
2019,10,19,05,33,9.20
2019,10,19,05,34,9.20
2019,10,19,05,35,9.20
2019,10,19,05,36,9.20
2019,10,19,05,37,9.20
2019,10,19,05,38,9.20
2019,10,19,05,39,9.20
2019,10,19,05,40,9.20
2019,10,19,05,41,9.20
2019,10,19,05,42,9.20
2019,10,19,05,43,9.20
2019,10,19,05,44,9.20
2019,10,19,05,45,9.20
2019,10,19,05,46,9.20
2019,10,19,05,47,9.20
2019,10,19,05,48,9.20
2019,10,19,05,49,9.20
2019,10,19,05,50,9.20
2019,10,19,05,51,9.20
2019,10,19,05,52,9.20
2019,10,19,05,53,9.10
2019,10,19,05,54,9.10
2019,10,19,05,55,9.10
2019,10,19,05,56,9.10
2019,10,19,05,57,9.10
2019,10,19,05,58,9.10
2019,10,19,05,59,9.10
2019,10,19,06,00,9.10
2019,10,19,06,01,9.10
2019,10,19,06,02,9.10
2019,10,19,06,03,9.10
2019,10,19,06,04,9.10
2019,10,19,06,05,9.10
2019,10,19,06,06,9.10
2019,10,19,06,07,9.10
2019,10,19,06,08,9.10
2019,10,19,06,09,9.10
2019,10,19,06,10,9.10
2019,10,19,06,11,9.10
2019,10,19,06,12,9.10
2019,10,19,06,13,9.10
2019,10,19,06,14,9.10
2019,10,19,06,15,9.10
2019,10,19,06,16,9.10
2019,10,19,06,17,9.10
2019,10,19,06,18,9.10
2019,10,19,06,19,9.10
2019,10,19,06,20,9.10
2019,10,19,06,21,9.10
2019,10,19,06,22,9.10
2019,10,19,06,23,9.10
2019,10,19,06,24,9.10
2019,10,19,06,25,9.10
2019,10,19,06,26,9.10
2019,10,19,06,27,9.10
2019,10,19,06,28,9.10
2019,10,19,06,29,9.10
2019,10,19,06,30,9.10
2019,10,19,06,31,9.10
2019,10,19,06,32,9.10
2019,10,19,06,33,9.10
2019,10,19,06,34,9.10
2019,10,19,06,35,9.10
2019,10,19,06,36,9.10
2019,10,19,06,37,9.10
2019,10,19,06,38,9.10
2019,10,19,06,39,9.10
2019,10,19,06,40,9.10
2019,10,19,06,41,9.10
2019,10,19,06,42,9.10
2019,10,19,06,43,9.10
2019,10,19,06,44,9.10
2019,10,19,06,45,9.10
2019,10,19,06,46,9.10
2019,10,19,06,47,9.10
2019,10,19,06,48,9.10
2019,10,19,06,49,9.10
2019,10,19,06,50,9.10
2019,10,19,06,51,9.10
2019,10,19,06,52,9.10
2019,10,19,06,53,9.10
2019,10,19,06,54,9.10
2019,10,19,06,55,9.10
2019,10,19,06,56,9.10
2019,10,19,06,57,9.10
2019,10,19,06,58,9.10
2019,10,19,06,59,9.10
2019,10,19,07,00,9.10
2019,10,19,07,01,9.10
2019,10,19,07,02,9.00
2019,10,19,07,03,9.00
2019,10,19,07,04,9.00
2019,10,19,07,05,9.00
2019,10,19,07,06,8.90
2019,10,19,07,07,8.90
2019,10,19,07,08,8.90
2019,10,19,07,09,8.90
2019,10,19,07,10,8.90
2019,10,19,07,11,8.90
2019,10,19,07,12,8.90
2019,10,19,07,13,8.90
2019,10,19,07,14,8.90
2019,10,19,07,15,8.90
2019,10,19,07,16,8.90
2019,10,19,07,17,8.90
2019,10,19,07,18,8.90
2019,10,19,07,19,8.90
2019,10,19,07,20,8.90
2019,10,19,07,21,8.90
2019,10,19,07,22,8.90
2019,10,19,07,23,8.80
2019,10,19,07,24,8.80
2019,10,19,07,25,8.80
2019,10,19,07,26,8.80
2019,10,19,07,27,8.70
2019,10,19,07,28,8.70
2019,10,19,07,29,8.70
2019,10,19,07,30,8.70
2019,10,19,07,31,8.70
2019,10,19,07,32,8.70
2019,10,19,07,33,8.70
2019,10,19,07,34,8.70
2019,10,19,07,35,8.70
2019,10,19,07,36,8.70
2019,10,19,07,37,8.70
2019,10,19,07,38,8.70
2019,10,19,07,39,8.80
2019,10,19,07,40,8.80
2019,10,19,07,41,8.80
2019,10,19,07,42,8.80
2019,10,19,07,43,8.80
2019,10,19,07,44,8.80
2019,10,19,07,45,8.80
2019,10,19,07,46,8.80
2019,10,19,07,47,8.80
2019,10,19,07,48,8.80
2019,10,19,07,49,8.80
2019,10,19,07,50,8.80
2019,10,19,07,51,8.80
2019,10,19,07,52,8.80
2019,10,19,07,53,8.80
2019,10,19,07,54,8.90
2019,10,19,07,55,8.90
2019,10,19,07,56,8.90
2019,10,19,07,57,8.90
2019,10,19,07,58,8.90
2019,10,19,07,59,8.90
2019,10,19,08,00,8.90
2019,10,19,08,01,8.90
2019,10,19,08,02,8.90
2019,10,19,08,03,8.90
2019,10,19,08,04,8.90
2019,10,19,08,05,8.90
2019,10,19,08,06,8.90
2019,10,19,08,07,8.90
2019,10,19,08,08,8.90
2019,10,19,08,09,8.90
2019,10,19,08,10,8.90
2019,10,19,08,11,8.90
2019,10,19,08,12,8.90
2019,10,19,08,13,8.90
2019,10,19,08,14,8.90
2019,10,19,08,15,8.80
2019,10,19,08,16,8.80
2019,10,19,08,17,8.90
2019,10,19,08,18,8.80
2019,10,19,08,19,8.90
2019,10,19,08,20,8.80
2019,10,19,08,21,8.90
2019,10,19,08,22,8.90
2019,10,19,08,23,8.90
2019,10,19,08,24,8.90
2019,10,19,08,25,8.90
2019,10,19,08,26,8.90
2019,10,19,08,27,8.90
2019,10,19,08,28,8.90
2019,10,19,08,29,8.90
2019,10,19,08,30,8.90
2019,10,19,08,31,8.90
2019,10,19,09,06,8.70
2019,10,19,09,07,8.70
2019,10,19,09,08,8.70
2019,10,19,09,09,8.70
2019,10,19,09,10,8.70
2019,10,19,09,11,8.70
2019,10,19,09,12,8.70
2019,10,19,09,13,8.70
2019,10,19,09,14,8.70
2019,10,19,09,15,8.70
2019,10,19,09,16,8.80
2019,10,19,09,17,8.80
2019,10,19,09,18,8.80
2019,10,19,09,19,8.80
2019,10,19,09,20,8.80
2019,10,19,09,21,8.80
2019,10,19,09,22,8.90
2019,10,19,09,23,8.90
2019,10,19,09,24,8.90
2019,10,19,09,25,8.90
2019,10,19,09,26,8.90
2019,10,19,09,27,8.90
2019,10,19,09,28,9.00
2019,10,19,09,29,9.00
2019,10,19,09,30,9.00
2019,10,19,09,31,9.00
2019,10,19,09,32,8.90
2019,10,19,09,33,8.90
2019,10,19,09,34,8.90
2019,10,19,09,35,8.90
2019,10,19,09,36,9.00
2019,10,19,09,37,9.00
2019,10,19,09,38,9.00
2019,10,19,09,39,9.00
2019,10,19,09,40,9.00
2019,10,19,09,41,9.10
2019,10,19,09,42,9.10
2019,10,19,09,43,9.00
2019,10,19,09,44,9.00
2019,10,19,09,45,9.00
2019,10,19,09,46,9.00
2019,10,19,09,47,9.00
2019,10,19,09,48,9.00
2019,10,19,09,49,9.00
2019,10,19,09,50,9.00
2019,10,19,09,51,9.00
2019,10,19,09,52,9.00
2019,10,19,09,53,9.00
2019,10,19,09,54,8.90
2019,10,19,09,55,8.90
2019,10,19,09,56,8.90
2019,10,19,09,57,8.90
2019,10,19,09,58,8.90
2019,10,19,09,59,8.90
2019,10,19,10,00,8.90
2019,10,19,10,01,8.90
2019,10,19,10,02,8.90
2019,10,19,10,03,8.90
2019,10,19,10,04,8.90
2019,10,19,10,05,8.90
2019,10,19,10,06,8.90
2019,10,19,10,07,8.90
2019,10,19,10,08,8.90
2019,10,19,10,09,8.90
2019,10,19,10,10,8.90
2019,10,19,10,11,8.90
2019,10,19,10,12,8.90
2019,10,19,10,13,8.90
2019,10,19,10,14,8.90
2019,10,19,10,15,8.90
2019,10,19,10,16,8.90
2019,10,19,10,17,8.90
2019,10,19,10,18,8.90
2019,10,19,10,19,8.90
2019,10,19,10,20,8.90
2019,10,19,10,21,8.90
2019,10,19,10,22,8.90
2019,10,19,10,23,8.90
2019,10,19,10,24,8.90
2019,10,19,10,25,8.90
2019,10,19,10,26,8.90
2019,10,19,10,27,8.90
2019,10,19,10,28,8.90
2019,10,19,10,29,8.90
2019,10,19,10,30,8.90
2019,10,19,10,31,8.90
2019,10,19,10,32,8.90
2019,10,19,10,33,9.00
2019,10,19,10,34,8.90
2019,10,19,10,35,9.00
2019,10,19,10,36,8.90
2019,10,19,10,37,8.90
2019,10,19,10,38,8.90
2019,10,19,10,39,8.90
2019,10,19,10,40,8.90
2019,10,19,10,41,8.90
2019,10,19,10,42,8.90
2019,10,19,10,43,8.90
2019,10,19,10,44,8.90
2019,10,19,10,45,8.90
2019,10,19,10,46,8.90
2019,10,19,10,47,8.90
2019,10,19,10,48,8.90
2019,10,19,10,49,8.90
2019,10,19,10,50,8.90
2019,10,19,10,51,8.90
2019,10,19,10,52,8.90
2019,10,19,10,53,9.00
2019,10,19,10,54,9.00
2019,10,19,10,55,8.90
2019,10,19,10,56,8.90
2019,10,19,10,57,8.90
2019,10,19,10,58,8.90
2019,10,19,10,59,8.90
2019,10,19,11,00,8.90
2019,10,19,11,01,9.00
2019,10,19,11,02,9.00
2019,10,19,11,03,9.10
2019,10,19,11,04,9.00
2019,10,19,11,05,9.10
2019,10,19,11,06,9.10
2019,10,19,11,07,9.10
2019,10,19,11,08,9.10
2019,10,19,11,09,9.10
2019,10,19,11,10,9.10
2019,10,19,11,11,9.10
2019,10,19,11,12,9.10
2019,10,19,11,13,9.10
2019,10,19,11,14,9.20
2019,10,19,11,15,9.20
2019,10,19,11,16,9.20
2019,10,19,11,17,9.20
2019,10,19,11,18,9.20
2019,10,19,11,19,9.20
2019,10,19,11,20,9.20
2019,10,19,11,21,9.20
2019,10,19,11,22,9.20
2019,10,19,11,23,9.20
2019,10,19,11,24,9.20
2019,10,19,11,25,9.20
2019,10,19,11,26,9.20
2019,10,19,11,27,9.20
2019,10,19,11,28,9.20
2019,10,19,11,29,9.10
2019,10,19,11,30,9.20
2019,10,19,11,31,9.20
2019,10,19,11,32,9.10
2019,10,19,11,33,9.10
2019,10,19,11,34,9.10
2019,10,19,11,35,9.20
2019,10,19,11,36,9.20
2019,10,19,11,37,9.20
2019,10,19,11,38,9.20
2019,10,19,11,39,9.30
2019,10,19,11,40,9.30
2019,10,19,11,41,9.30
2019,10,19,11,42,9.30
2019,10,19,11,43,9.30
2019,10,19,11,44,9.30
2019,10,19,11,45,9.30
2019,10,19,11,46,9.30
2019,10,19,11,47,9.30
2019,10,19,11,48,9.40
2019,10,19,11,49,9.40
2019,10,19,11,50,9.30
2019,10,19,11,51,9.40
2019,10,19,11,52,9.40
2019,10,19,11,53,9.40
2019,10,19,11,54,9.30
2019,10,19,11,55,9.30
2019,10,19,11,56,9.30
2019,10,19,11,57,9.30
2019,10,19,11,58,9.30
2019,10,19,11,59,9.30
2019,10,19,12,00,9.30
2019,10,19,12,01,9.30
2019,10,19,12,02,9.20
2019,10,19,12,03,9.30
2019,10,19,12,04,9.30
2019,10,19,12,05,9.30
2019,10,19,12,06,9.30
2019,10,19,12,07,9.30
2019,10,19,12,08,9.30
2019,10,19,12,09,9.30
2019,10,19,12,10,9.30
2019,10,19,12,11,9.30
2019,10,19,12,12,9.30
2019,10,19,12,13,9.20
2019,10,19,12,14,9.20
2019,10,19,12,15,9.20
2019,10,19,12,16,9.20
2019,10,19,12,17,9.20
2019,10,19,12,18,9.10
2019,10,19,12,19,9.10
2019,10,19,12,20,9.10
2019,10,19,12,21,9.10
2019,10,19,12,22,9.10
2019,10,19,12,23,9.10
2019,10,19,12,24,9.10
2019,10,19,12,25,9.10
2019,10,19,12,26,9.10
2019,10,19,12,27,9.10
2019,10,19,12,28,9.10
2019,10,19,12,29,9.20
2019,10,19,12,30,9.10
2019,10,19,12,31,9.10
2019,10,19,12,32,9.10
2019,10,19,12,33,9.10
2019,10,19,12,34,9.20
2019,10,19,12,35,9.20
2019,10,19,12,36,9.20
2019,10,19,12,37,9.20
2019,10,19,12,38,9.20
2019,10,19,12,39,9.20
2019,10,19,12,40,9.30
2019,10,19,12,41,9.30
2019,10,19,12,42,9.30
2019,10,19,12,43,9.40
2019,10,19,12,44,9.40
2019,10,19,12,45,9.40
2019,10,19,12,46,9.40
2019,10,19,12,47,9.50
2019,10,19,12,48,9.40
2019,10,19,12,49,9.40
2019,10,19,12,50,9.40
2019,10,19,12,51,9.50
2019,10,19,12,52,9.50
2019,10,19,12,53,9.60
2019,10,19,12,54,9.60
2019,10,19,12,55,9.60
2019,10,19,12,56,9.70
2019,10,19,12,57,9.70
2019,10,19,12,58,9.80
2019,10,19,12,59,9.80
2019,10,19,13,00,9.80
2019,10,19,13,01,9.80
2019,10,19,13,02,9.80
2019,10,19,13,03,9.80
2019,10,19,13,04,9.80
2019,10,19,13,05,9.90
2019,10,19,13,06,9.90
2019,10,19,13,07,9.90
2019,10,19,13,08,10.00
2019,10,19,13,09,10.00
2019,10,19,13,10,10.00
2019,10,19,13,11,10.10
2019,10,19,13,12,10.10
2019,10,19,13,13,10.00
2019,10,19,13,14,10.00
2019,10,19,13,15,10.00
2019,10,19,13,16,10.00
2019,10,19,13,17,10.00
2019,10,19,13,18,10.00
2019,10,19,13,19,10.00
2019,10,19,13,20,10.00
2019,10,19,13,21,10.10
2019,10,19,13,22,10.10
2019,10,19,13,23,10.10
2019,10,19,13,24,10.10
2019,10,19,13,25,10.10
2019,10,19,13,26,10.10
2019,10,19,13,27,10.10
2019,10,19,13,28,10.10
2019,10,19,13,29,10.10
2019,10,19,13,30,10.10
2019,10,19,13,31,10.10
2019,10,19,13,32,10.20
2019,10,19,13,33,10.20
2019,10,19,13,34,10.20
2019,10,19,13,35,10.20
2019,10,19,13,36,10.20
2019,10,19,13,37,10.20
2019,10,19,13,38,10.20
2019,10,19,13,39,10.20
2019,10,19,13,40,10.20
2019,10,19,13,41,10.20
2019,10,19,13,42,10.20
2019,10,19,13,43,10.20
2019,10,19,13,44,10.20
2019,10,19,13,45,10.20
2019,10,19,13,46,10.20
2019,10,19,13,47,10.20
2019,10,19,13,48,10.20
2019,10,19,13,49,10.20
2019,10,19,13,50,10.20
2019,10,19,13,51,10.20
2019,10,19,13,52,10.20
2019,10,19,13,53,10.20
2019,10,19,13,54,10.20
2019,10,19,13,55,10.20
2019,10,19,13,56,10.20
2019,10,19,13,57,10.30
2019,10,19,13,58,10.30
2019,10,19,13,59,10.30
2019,10,19,14,00,10.30
2019,10,19,14,01,10.30
2019,10,19,14,02,10.20
2019,10,19,14,03,10.20
2019,10,19,14,04,10.20
2019,10,19,14,05,10.20
2019,10,19,14,06,10.20
2019,10,19,14,07,10.20
2019,10,19,14,08,10.20
2019,10,19,14,09,10.30
2019,10,19,14,10,10.30
2019,10,19,14,11,10.30
2019,10,19,14,12,10.20
2019,10,19,14,13,10.20
2019,10,19,14,14,10.20
2019,10,19,14,15,10.30
2019,10,19,14,16,10.30
2019,10,19,14,17,10.30
2019,10,19,14,18,10.30
2019,10,19,14,19,10.30
2019,10,19,14,20,10.30
2019,10,19,14,21,10.30
2019,10,19,14,22,10.30
2019,10,19,14,23,10.30
2019,10,19,14,24,10.30
2019,10,19,14,25,10.30
2019,10,19,14,26,10.30
2019,10,19,14,27,10.30
2019,10,19,14,28,10.30
2019,10,19,14,29,10.30
2019,10,19,14,30,10.30
2019,10,19,14,31,10.30
2019,10,19,14,32,10.30
2019,10,19,14,33,10.40
2019,10,19,14,34,10.40
2019,10,19,14,35,10.40
2019,10,19,14,36,10.40
2019,10,19,14,37,10.30
2019,10,19,14,38,10.30
2019,10,19,14,39,10.30
2019,10,19,14,40,10.30
2019,10,19,14,41,10.20
2019,10,19,14,42,10.20
2019,10,19,14,43,10.20
2019,10,19,14,44,10.20
2019,10,19,14,45,10.10
2019,10,19,14,46,10.20
2019,10,19,14,47,10.20
2019,10,19,14,48,10.20
2019,10,19,14,49,10.20
2019,10,19,14,50,10.20
2019,10,19,14,51,10.20
2019,10,19,14,52,10.20
2019,10,19,14,53,10.20
2019,10,19,14,54,10.20
2019,10,19,14,55,10.20
2019,10,19,14,56,10.20
2019,10,19,14,57,10.30
2019,10,19,14,58,10.30
2019,10,19,14,59,10.30
2019,10,19,15,00,10.30
2019,10,19,15,01,10.40
2019,10,19,15,02,10.40
2019,10,19,15,03,10.40
2019,10,19,15,04,10.40
2019,10,19,15,05,10.40
2019,10,19,15,06,10.40
2019,10,19,16,06,10.80
2019,10,19,16,07,10.70
2019,10,19,16,08,10.70
2019,10,19,16,09,10.80
2019,10,19,16,10,10.80
2019,10,19,16,11,10.80
2019,10,19,16,12,10.80
2019,10,19,16,13,10.80
2019,10,19,16,14,10.90
2019,10,19,16,15,10.90
2019,10,19,16,16,10.90
2019,10,19,16,17,10.90
2019,10,19,16,18,10.90
2019,10,19,16,19,10.80
2019,10,19,16,20,10.90
2019,10,19,16,21,10.80
2019,10,19,16,22,10.80
2019,10,19,16,23,10.80
2019,10,19,16,24,10.80
2019,10,19,16,25,10.80
2019,10,19,16,26,10.80
2019,10,19,16,27,10.80
2019,10,19,16,28,10.90
2019,10,19,16,29,10.80
2019,10,19,16,30,10.80
2019,10,19,16,31,10.80
2019,10,19,16,32,10.80
2019,10,19,16,33,10.80
2019,10,19,16,34,10.80
2019,10,19,16,35,10.70
2019,10,19,16,36,10.70
2019,10,19,16,37,10.80
2019,10,19,16,38,10.80
2019,10,19,16,39,10.80
2019,10,19,16,40,10.80
2019,10,19,16,41,10.70
2019,10,19,16,42,10.70
2019,10,19,16,43,10.70
2019,10,19,16,44,10.80
2019,10,19,16,45,10.80
2019,10,19,16,46,10.80
2019,10,19,16,47,10.80
2019,10,19,16,48,10.80
2019,10,19,16,49,10.80
2019,10,19,16,50,10.80
2019,10,19,16,51,10.80
2019,10,19,16,52,10.70
2019,10,19,16,53,10.80
2019,10,19,16,54,10.70
2019,10,19,16,55,10.80
2019,10,19,16,56,10.70
2019,10,19,16,57,10.70
2019,10,19,16,58,10.80
2019,10,19,16,59,10.80
2019,10,19,17,00,10.80
2019,10,19,17,01,10.80
2019,10,19,17,02,10.70
2019,10,19,17,03,10.70
2019,10,19,17,04,10.70
2019,10,19,17,05,10.70
2019,10,19,17,06,10.80
2019,10,19,17,07,10.80
2019,10,19,17,08,10.80
2019,10,19,17,09,10.80
2019,10,19,17,10,10.70
2019,10,19,17,11,10.70
2019,10,19,17,12,10.70
2019,10,19,17,13,10.70
2019,10,19,17,14,10.70
2019,10,19,17,15,10.70
2019,10,19,17,16,10.70
2019,10,19,17,17,10.70
2019,10,19,17,18,10.70
2019,10,19,17,19,10.70
2019,10,19,17,20,10.70
2019,10,19,17,21,10.80
2019,10,19,17,22,10.80
2019,10,19,17,23,10.80
2019,10,19,17,24,10.80
2019,10,19,17,25,10.80
2019,10,19,17,26,10.80
2019,10,19,17,27,10.80
2019,10,19,17,28,10.80
2019,10,19,17,29,10.80
2019,10,19,17,30,10.80
2019,10,19,17,31,10.80
2019,10,19,17,32,10.80
2019,10,19,17,33,10.70
2019,10,19,17,34,10.70
2019,10,19,17,35,10.70
2019,10,19,17,36,10.70
2019,10,19,17,37,10.70
2019,10,19,17,38,10.70
2019,10,19,17,39,10.70
2019,10,19,17,40,10.80
2019,10,19,17,41,10.80
2019,10,19,17,42,10.80
2019,10,19,17,43,10.80
2019,10,19,17,44,10.80
2019,10,19,17,45,10.70
2019,10,19,17,46,10.70
2019,10,19,17,47,10.70
2019,10,19,17,48,10.70
2019,10,19,17,49,10.70
2019,10,19,17,50,10.70
2019,10,19,17,51,10.70
2019,10,19,17,52,10.70
2019,10,19,17,53,10.70
2019,10,19,17,54,10.70
2019,10,19,17,55,10.70
2019,10,19,17,56,10.70
2019,10,19,17,57,10.70
2019,10,19,17,58,10.70
2019,10,19,17,59,10.70
2019,10,19,18,00,10.70
2019,10,19,18,01,10.70
2019,10,19,18,02,10.70
2019,10,19,18,03,10.70
2019,10,19,18,04,10.70
2019,10,19,18,05,10.70
2019,10,19,18,06,10.70
2019,10,19,18,07,10.70
2019,10,19,18,08,10.70
2019,10,19,18,09,10.70
2019,10,19,18,10,10.80
2019,10,19,18,11,10.80
2019,10,19,18,12,10.70
2019,10,19,18,13,10.70
2019,10,19,18,14,10.70
2019,10,19,18,15,10.70
2019,10,19,18,16,10.70
2019,10,19,18,17,10.70
2019,10,19,18,18,10.70
2019,10,19,18,19,10.70
2019,10,19,18,20,10.70
2019,10,19,18,21,10.80
2019,10,19,18,22,10.80
2019,10,19,18,23,10.80
2019,10,19,18,24,10.70
2019,10,19,18,25,10.70
2019,10,19,18,26,10.70
2019,10,19,18,27,10.70
2019,10,19,18,28,10.70
2019,10,19,18,29,10.80
2019,10,19,18,30,10.70
2019,10,19,18,31,10.70
2019,10,19,18,32,10.70
2019,10,19,18,33,10.80
2019,10,19,18,34,10.80
2019,10,19,18,35,10.80
2019,10,19,18,36,10.70
2019,10,19,18,37,10.70
2019,10,19,18,38,10.70
2019,10,19,18,39,10.70
2019,10,19,18,40,10.70
2019,10,19,18,41,10.70
2019,10,19,18,42,10.70
2019,10,19,18,43,10.70
2019,10,19,18,44,10.70
2019,10,19,18,45,10.70
2019,10,19,18,46,10.70
2019,10,19,18,47,10.80
2019,10,19,18,48,10.80
2019,10,19,18,49,10.80
2019,10,19,18,50,10.80
2019,10,19,18,51,10.80
2019,10,19,18,52,10.80
2019,10,19,18,53,10.80
2019,10,19,18,54,10.70
2019,10,19,18,55,10.80
2019,10,19,18,56,10.80
2019,10,19,18,57,10.80
2019,10,19,18,58,10.70
2019,10,19,18,59,10.80
2019,10,19,19,00,10.80
2019,10,19,19,01,10.80
2019,10,19,19,02,10.80
2019,10,19,19,03,10.80
2019,10,19,19,04,10.80
2019,10,19,19,05,10.80
2019,10,19,19,06,10.80
2019,10,19,19,07,10.80
2019,10,19,19,08,10.70
2019,10,19,20,06,10.60
2019,10,19,20,07,10.60
2019,10,19,20,08,10.60
2019,10,19,20,09,10.60
2019,10,19,20,10,10.60
2019,10,19,20,11,10.60
2019,10,19,20,12,10.70
2019,10,19,20,13,10.70
2019,10,19,20,14,10.60
2019,10,19,20,15,10.60
2019,10,19,20,16,10.60
2019,10,19,20,17,10.60
2019,10,19,20,18,10.50
2019,10,19,20,19,10.50
2019,10,19,20,20,10.50
2019,10,19,20,21,10.50
2019,10,19,20,22,10.50